STARLINK-36555, 67497

Orbit data source: Space-Track

STARLINK-36555, 67497 is a payload satellite owned by SpaceX/Seattle (US) in LEO that was launched on Sun, 18 Jan 2026 UTC via an FALCON 9 launch vehicle from the Air Force Eastern Test Range (AFETR). Payload-class satellites include a variety of spacecraft equipped with specific instruments for various scientific and technological missions. These include communications satellites like Starlink; space stations such as the ISS; scientific satellites like the Hubble; Earth observation satellites from companies like Planet Labs, Umbra, and HawkEye 360; GPS; miniature CubeSats for education and research; and military/defense satellites.

Loading next visibility...
Identifier
67497, 2026-012E
Orbit
LEO
Country
Flag of USUS
Related business
Manufacturer
SpaceX/Seattle
Mission
Operational Commercial Communications
Bus & Motor
STARLINK V2MO, Unknown motor
Mass
575 kg wet, ~530 kg dry
Launch date (UTC)
2026-01-18 (5 months ago)
Launch vehicle
FALCON 9
Launch site
Air Force Eastern Test Range (AFETR)
Object type
Payload
Rocket body
Debris
Shape & HBR
Box + 2 Pan, 17.7 m
Radar Cross Section
36.964 m², Large (>1 m²)

Expand to show TLE details & history
Last TLE update: 21 hours ago

TLE from 21 hours ago
0 STARLINK-36555
1 67497U 26012E   26170.98228899  .00013902  00000-0  51346-3 0  9992
2 67497  43.0001  96.9337 0001296 256.0919 103.9789 15.27599474 23409
Epoch: 2026-06-19T23:34Z
TLE epoch observation values (Epoch: 2026-06-19T23:34:29.768Z)
Latitude
Longitude
-164.89379°
Altitude
482.981 km
Speed
7.626 km/s
True Right ascension
06h 27m 44s
True Declination
0° 00' 00"
Sunlit
Object was in daylight at epoch
Visualization orbit readout
Latitude
Unknown
Longitude
Unknown
Altitude
Unknown
Speed
Unknown
Apparent Right ascension
Unknown
Apparent Declination
Unknown
Sunlit
N/A
Visualization observer readout
Local Sidereal Time
07:23:26
Azimuth
Unknown
Elevation
Unknown
Doppler factor
Unknown
Orbital elements
Apogee altitude
485.825 km
Perigee altitude
484.047 km
Semi-major axis
6,863.073 km
Eccentricity
0.00013
Inclination
43.0001°
RAAN
96.9337°
Arg. of periapsis
256.0919°
True anomaly
103.99331°
Mean anomaly
103.9789°
Eccentric anomaly
103.98611°
Mean motion
3.81738 °/min
Orbital period
94.31 mins
BSTAR
0.00051346
Loading maneuver chart data...
Computing Atmospheric mass density...
Loading historical data...
Loading historical data...
Loading historical data...
Loading historical data...
Loading historical data...
Loading historical data...
Loading historical data...

Documentation

Showing up to 5 results
|